Regional Weather Roundup
Issued by NWS

Home | Current Version | Previous Version | Text Only | Print | Product List | Glossary On
Versions: 1 2 3 4 5 6 7 8 9 10 11 12 13 14 15 16 17 18 19 20 21 22 23 24 25 26 27 28 29 30 31 32 33 34 35 36 37 38 39 40 41 42 43 44 45 46 47 48 49 50
000
ASUS44 KJAN 020410
RWRMS

MISSISSIPPI HOURLY WEATHER ROUNDUP
NATIONAL WEATHER SERVICE JACKSON MS
1100 PM CDT SUN MAY 01 2016

NOTE: "FAIR: INDICATES FEW OR NO CLOUDS BELOW 12,000 FEET WITH NO
SIGNIFICANT WEATHER AND/OR OBSTRUCTIONS TO VISIBILITY.

MSZ001>002-007>008-010>013-018>021-025>028-034>036-020500-
NORTHWEST MISSISSIPPI

CITY           SKY/WX    TMP DP  RH WIND       PRES   REMARKS
BATESVILLE     FAIR      70  66  87 CALM      29.97S
CLEVELAND      FAIR      73  73 100 CALM      29.96R
GREENWOOD      CLEAR     71  67  87 E6        29.95R
GREENVILLE     MOCLDY    74  69  85 CALM      29.95S
OLIVE BRANCH   PTCLDY    66  66 100 CALM      29.97S
OXFORD         FAIR      68  64  88 SE7       29.99S
TUNICA         PTCLDY    68  66  94 NE5       29.96F
WINONA         FAIR      69  68  98 CALM      29.97R
$$

MSZ003>006-009-014>017-022>024-029>033-037>039-020500-
NORTHEAST MISSISSIPPI

CITY           SKY/WX    TMP DP  RH WIND       PRES   REMARKS
COLUMBUS AFB   CLOUDY    65  65  98 SE3       29.98F
CORINTH        FAIR      70  64  83 S6        29.97F
GOLDN TRIANGLE PTCLDY    68  64  88 SE8       29.98F
STARKVILLE     CLOUDY    68  66  94 SE8       29.98S FOG
TUPELO         CLOUDY    69  65  86 SE7       29.99S
$$

MSZ040-058-020500-
CENTRAL MISSISSIPPI

CITY           SKY/WX    TMP DP  RH WIND       PRES   REMARKS
JACKSON INTL   MOCLDY    68  64  87 SE7       29.96R
JACKSON HAWKNS CLOUDY    68  65  90 SE8       29.97R
MADISON        FAIR      68  64  88 CALM      29.96R
MERIDIAN KEY   CLOUDY    68  66  93 CALM      29.99S
MERIDIAN NAS   CLOUDY    69  67  93 SE6       30.00S
VICKSBURG TVR  CLOUDY    72  68  87 CALM      29.96R
VICKSBURG VKS  CLEAR     70  66  88 CALM      29.96R
$$

MSZ059>079-020500-
SOUTH MISSISSIPPI

CITY           SKY/WX    TMP DP  RH WIND       PRES   REMARKS
BROOKHAVEN     FAIR     N/A N/A N/A CALM      29.98R
COLUMBIA       FAIR      66  64  94 CALM      30.01R
HATTIESBURG    CLOUDY    67  65  93 W5        29.98R
MCCOMB         PTCLDY    66  66 100 E3        29.98R
NATCHEZ        PTCLDY    66  63  88 SE3       29.97R
PINE BELT      MOCLDY    66  63  88 CALM      29.99R
$$

MSZ080>082-020500-
COASTAL MISSISSIPPI

CITY           SKY/WX    TMP DP  RH WIND       PRES   REMARKS
BILOXI         CLOUDY    76  71  84 SE8       29.93F
PASCAGOULA     CLOUDY    75  71  87 SE12      29.96F
GULFPORT       CLOUDY    73  64  73 SE10      29.92F
$$




USA.gov is the U.S. government's official web portal to all federal, state and local government web resources and services.